EW4498 Weather Reports


Display with metric or nautical units.
time (UTC)temp
F
wind
direction
speed
MPH
gust
MPH
rain 1hr
in
rain 24hr
in
rain mn
in
humidity
%
barometer
mb
20260507060049 49 338 2.0 5.0 0.00 0.00 0.00 76 1015.3
20260507054545 48 19 3.0 5.0 0.00 0.00 0.00 78 1015.2
20260507053040 46 24 1.0 4.0 0.00 0.00 0.00 82 1015.1
20260507051536 44 153 0.0 2.0 0.00 0.00 0.00 88 1015.0
20260507050035 40 178 0.0 0.0 0.00 0.00 0.00 89 1015.0
20260507044527 37 178 0.0 0.0 0.00 0.00 0.00 91 1014.9
20260507043023 35 178 0.0 0.0 0.00 0.00 0.00 92 1014.8
20260507041518 33 178 0.0 0.0 0.00 0.00 0.00 90 1014.7
20260507040018 33 178 0.0 0.0 0.00 0.00 0.00 90 1014.7
20260507034528 33 177 0.0 0.0 0.00 0.00 0.00 89 1014.6
20260507033013 33 177 0.0 0.0 0.00 0.00 0.00 89 1014.5
20260507031512 33 177 0.0 0.0 0.00 0.00 0.00 89 1014.2
20260507030011 34 177 0.0 0.0 0.00 0.00 0.00 89 1014.3
20260507024507 34 177 0.0 0.0 0.00 0.00 0.00 89 1014.3
20260507023005 34 177 0.0 0.0 0.00 0.00 0.00 89 1014.1
20260507021502 35 177 0.0 0.0 0.00 0.00 0.00 89 1014.0
20260507020100 35 177 0.0 0.0 0.00 0.00 0.00 89 1013.9
20260507014603 35 177 0.0 0.0 0.00 0.00 0.00 88 1013.8
20260507013116 36 177 0.0 0.0 0.00 0.00 0.00 89 1013.7
20260507011558 36 177 0.0 0.0 0.00 0.00 0.00 88 1013.6
20260507004552 37 177 0.0 0.0 0.00 0.00 0.00 88 1013.5
20260507003049 37 176 0.0 0.0 0.00 0.00 0.00 87 1013.5
20260507001551 38 176 0.0 0.0 0.00 0.00 0.00 87 1013.5
20260507000045 38 176 0.0 0.0 0.00 0.00 0.00 88 1013.5
20260506234544 39 176 0.0 0.0 0.00 0.00 0.00 88 1013.5
20260506233056 39 176 0.0 0.0 0.00 0.00 0.00 87 1013.4
20260506231541 39 176 0.0 0.0 0.00 0.00 0.00 87 1013.5
20260506230037 39 176 0.0 0.0 0.00 0.00 0.00 86 1013.4
20260506224536 40 176 0.0 0.0 0.00 0.00 0.00 86 1013.3
20260506223034 39 176 0.0 0.0 0.00 0.00 0.00 85 1013.2
20260506221533 40 176 0.0 0.0 0.00 0.00 0.00 85 1013.2
20260506220030 40 176 0.0 0.0 0.00 0.00 0.00 85 1013.2
20260506214528 41 176 0.0 0.0 0.00 0.00 0.00 84 1013.1
20260506213028 41 176 0.0 0.0 0.00 0.00 0.00 84 1012.9
20260506211528 41 176 0.0 0.0 0.00 0.00 0.00 81 1013.0
20260506210025 42 176 0.0 0.0 0.00 0.00 0.00 80 1012.9
20260506204640 43 176 0.0 0.0 0.00 0.00 0.00 80 1012.9
20260506203038 44 176 0.0 0.0 0.00 0.00 0.00 80 1012.8
20260506201637 44 176 0.0 3.0 0.00 0.00 0.00 79 1012.7
20260506200045 44 177 0.0 3.0 0.00 0.00 0.00 78 1012.7
20260506194505 45 176 0.0 3.0 0.00 0.00 0.00 76 1012.6
20260506193107 45 180 1.0 3.0 0.00 0.00 0.00 75 1012.6
20260506191535 46 167 0.0 1.0 0.00 0.00 0.00 73 1012.5
20260506190137 47 163 2.0 5.0 0.00 0.00 0.00 71 1012.3
20260506184624 47 128 3.0 7.0 0.00 0.00 0.00 70 1012.2
20260506183038 48 180 2.0 5.0 0.00 0.00 0.00 69 1012.0
20260506181517 48 159 5.0 8.0 0.00 0.00 0.00 67 1011.8
20260506180055 49 158 3.0 8.0 0.00 0.00 0.00 66 1011.6
20260506174546 49 121 5.0 9.0 0.00 0.00 0.00 63 1011.6
20260506173142 50 128 2.0 7.0 0.00 0.00 0.00 63 1011.4
20260506171550 50 115 4.0 11.0 0.00 0.00 0.00 59 1011.3
20260506170007 51 152 4.0 10.0 0.00 0.00 0.00 57 1011.1
20260506164623 51 155 5.0 12.0 0.00 0.00 0.00 55 1011.1
20260506163022 52 115 3.0 11.0 0.00 0.00 0.00 52 1011.1
20260506161559 53 129 7.0 11.0 0.00 0.00 0.00 49 1011.0
20260506160049 52 118 7.0 16.0 0.00 0.00 0.00 45 1011.1
20260506154647 53 101 8.0 14.0 0.00 0.00 0.00 40 1011.1
20260506153042 54 144 9.0 17.0 0.00 0.00 0.00 39 1011.1
20260506151645 54 149 6.0 16.0 0.00 0.00 0.00 40 1011.0
20260506150043 55 158 10.0 17.0 0.00 0.00 0.00 36 1011.1
20260506144641 55 152 6.0 15.0 0.00 0.00 0.00 37 1011.0
20260506143056 55 124 8.0 16.0 0.00 0.00 0.00 40 1010.9
20260506141547 55 158 6.0 13.0 0.00 0.00 0.00 43 1010.9
20260506140144 54 145 7.0 15.0 0.00 0.00 0.00 44 1010.9
20260506134600 55 114 7.0 14.0 0.00 0.00 0.00 62 1010.7
20260506133102 56 110 8.0 16.0 0.00 0.00 0.00 60 1010.5
20260506131651 56 69 10.0 14.0 0.00 0.00 0.00 60 1010.4
20260506130047 57 79 6.0 12.0 0.00 0.00 0.00 65 1010.4
20260506124646 56 71 7.0 12.0 0.00 0.00 0.00 67 1010.3
20260506123046 56 90 6.0 12.0 0.00 0.00 0.00 64 1010.3
20260506121541 56 86 8.0 13.0 0.00 0.00 0.00 60 1010.1
20260506120150 56 98 6.0 13.0 0.00 0.00 0.00 59 1010.2
20260506114602 57 99 7.0 13.0 0.00 0.00 0.00 57 1010.1
20260506113044 56 85 5.0 12.0 0.00 0.00 0.00 57 1010.1
20260506111646 56 84 4.0 11.0 0.00 0.00 0.00 61 1010.1
20260506110058 56 92 7.0 13.0 0.00 0.00 0.00 56 1010.2
20260506104533 56 75 5.0 13.0 0.00 0.00 0.00 56 1010.2
20260506103029 56 118 6.0 15.0 0.00 0.00 0.00 54 1010.2
20260506101516 58 159 7.0 13.0 0.00 0.00 0.00 54 1010.1
20260506100014 59 39 6.0 11.0 0.00 0.00 0.00 40 1010.0
20260506094527 59 59 4.0 10.0 0.00 0.00 0.00 40 1010.0
20260506093020 59 60 4.0 10.0 0.00 0.00 0.00 43 1009.9
20260506091509 58 360 4.0 9.0 0.00 0.00 0.00 42 1010.0
20260506090005 57 79 5.0 11.0 0.00 0.00 0.00 44 1010.0
20260506084505 57 54 4.0 10.0 0.00 0.00 0.00 43 1009.9
20260506083001 56 46 4.0 8.0 0.00 0.00 0.00 45 1010.0
20260506081602 55 44 3.0 9.0 0.00 0.00 0.00 47 1010.0
20260506073053 53 66 3.0 9.0 0.00 0.00 0.00 51 1010.0
20260506071551 53 31 3.0 6.0 0.00 0.00 0.00 53 1010.1
20260506070104 52 44 3.0 10.0 0.00 0.00 0.00 49 1010.1
20260506061536 50 34 2.0 5.0 0.00 0.00 0.00 52 1010.1